Weather History for KE38 - February, 2014

Change the Weather History Date:

Tuesday, February 25, 2014

  Actual Average (KMRF) Record (KMRF)
Temperature  
Mean Temperature 57 °F -  
Max Temperature 67 °F 58 °F 78 °F (2008)
Min Temperature 47 °F 29 °F 17 °F (2003)
Degree Days  
Heating Degree Days 8    
Growing Degree Days 7 (Base 50)    
Moisture  
Dew Point 36 °F    
Average Humidity 48    
Maximum Humidity 64    
Minimum Humidity 22    
Precipitation  
Precipitation 0.00 in - - ()
Sea Level Pressure  
Sea Level Pressure 30.11 in    
Wind  
Wind Speed 6 mph (South)    
Max Wind Speed 14 mph    
Max Gust Speed 17 mph    
Visibility 10 miles    
Events      
Averages and records for this station are not official NWS values.
T = Trace of Precipitation, MM = Missing Value Source: NWS Daily Summary

Daily Weather History Graph

Daily Weather History Graph

Search for Another Location

Airport or City:

Trip Planner

Search our weather history database for the weather conditions in past years. The results will help you decide how hot, cold, wet, or windy it might be!

Date:

Astronomy

Feb. 25, 2014 Rise Set
Actual Time 7:25 AM CST 6:50 PM CST
Civil Twilight 7:00 AM CST 7:14 PM CST
Nautical Twilight 6:33 AM CST 7:42 PM CST
Astronomical Twilight 6:05 AM CST 8:10 PM CST
Moon 4:10 AM CST (2/25) 3:09 PM CST (2/25)
Length of Visible Light 12h 14m
Length of Day
11h 25m
Waning Crescent, 18% of the Moon is Illuminated
Feb 25
Waning Crescent
Mar 1
New
Mar 8
First Quarter
Mar 16
Full
Mar 23
Last Quarter

Hourly Weather History & Observations

Time (CST) Temp. Dew Point Humidity Pressure Visibility Wind Dir Wind Speed Gust Speed Precip Events Conditions
12:15 AM 49.1 °F 34.0 °F 56% 30.12 in 10.0 mi WSW 5.8 mph - N/A   Clear
12:35 AM 50.4 °F 34.0 °F 53% 30.11 in 10.0 mi WSW 6.9 mph - N/A   Clear
12:55 AM 49.1 °F 33.4 °F 55% 30.11 in 10.0 mi West 5.8 mph - N/A   Clear
1:15 AM 50.4 °F 33.1 °F 52% 30.11 in 10.0 mi WSW 8.1 mph - N/A   Clear
1:30 AM 48.4 °F 33.4 °F 56% 30.12 in 10.0 mi WSW 5.8 mph - N/A   Clear
1:55 AM 47.7 °F 33.8 °F 59% 30.11 in 10.0 mi West 6.9 mph - N/A   Clear
2:15 AM 49.1 °F 34.3 °F 57% 30.11 in 10.0 mi West 8.1 mph - N/A   Clear
3:55 AM 50.2 °F 36.9 °F 60% 30.10 in 10.0 mi WSW 4.6 mph - N/A   Clear
4:15 AM 48.6 °F 35.8 °F 61% 30.10 in 10.0 mi SSW 9.2 mph - N/A   Clear
4:35 AM 49.6 °F 37.0 °F 62% 30.10 in 10.0 mi SSW 6.9 mph - N/A   Clear
4:55 AM 49.1 °F 35.6 °F 60% 30.10 in 10.0 mi SSW 6.9 mph - N/A   Clear
5:15 AM 48.7 °F 35.6 °F 60% 30.10 in 10.0 mi SW 10.4 mph - N/A   Clear
5:35 AM 47.5 °F 35.8 °F 64% 30.09 in 10.0 mi SW 10.4 mph - N/A   Clear
5:55 AM 47.8 °F 36.1 °F 64% 30.09 in 10.0 mi SSW 6.9 mph - N/A   Clear
6:15 AM 50.0 °F 37.4 °F 62% 30.09 in 10.0 mi SW 10.4 mph - N/A   Clear
6:35 AM 51.4 °F 37.4 °F 59% 30.10 in 10.0 mi SW 9.2 mph - N/A   Clear
6:55 AM 50.2 °F 37.4 °F 62% 30.11 in 10.0 mi South 5.8 mph - N/A   Clear
7:15 AM 51.6 °F 38.1 °F 60% 30.11 in 10.0 mi SSW 4.6 mph - N/A   Clear
7:35 AM 53.1 °F 37.4 °F 55% 30.11 in 10.0 mi WSW 5.8 mph - N/A   Clear
8:00 AM 54.9 °F 36.5 °F 50% 30.12 in 10.0 mi West 6.9 mph - N/A   Clear
8:15 AM 55.4 °F 37.6 °F 51% 30.12 in 10.0 mi WSW 4.6 mph - N/A   Clear
8:35 AM 56.3 °F 37.8 °F 50% 30.13 in 10.0 mi SSW 3.5 mph - N/A   Clear
8:55 AM 58.3 °F 39.7 °F 50% 30.13 in 5.0 mi South 3.5 mph - N/A   Clear
9:15 AM 59.9 °F 40.3 °F 48% 30.13 in 10.0 mi Calm Calm - N/A   Clear
9:35 AM 61.7 °F 40.8 °F 46% 30.14 in 10.0 mi Calm Calm - N/A   Clear
9:55 AM 63.5 °F 40.6 °F 43% 30.14 in 10.0 mi South 3.5 mph - N/A   Clear
10:15 AM 64.8 °F 40.1 °F 40% 30.15 in 10.0 mi South 3.5 mph - N/A   Clear
10:35 AM 65.3 °F 40.5 °F 40% 30.15 in 10.0 mi South 3.5 mph - N/A   Clear
10:50 AM 65.8 °F 41.2 °F 41% 30.15 in 10.0 mi Calm Calm - N/A   Clear
11:20 AM 67.1 °F 40.8 °F 38% 30.14 in 10.0 mi Calm Calm - N/A   Clear
11:35 AM 67.6 °F 39.2 °F 35% 30.14 in 10.0 mi Calm Calm - N/A   Clear
11:55 AM 66.9 °F 37.0 °F 33% 30.16 in 10.0 mi NNE 10.4 mph - N/A   Clear
12:15 PM 66.6 °F 26.1 °F 22% 30.16 in 10.0 mi NNE 12.7 mph - N/A   Clear
12:40 PM 65.3 °F 28.2 °F 25% 30.16 in 10.0 mi NNE 9.2 mph - N/A   Scattered Clouds
12:55 PM 66.4 °F 29.3 °F 25% 30.14 in 10.0 mi NE 11.5 mph - N/A   Scattered Clouds
1:15 PM 65.7 °F 34.5 °F 31% 30.13 in 10.0 mi ENE 13.8 mph - N/A   Scattered Clouds
1:35 PM 64.8 °F 39.9 °F 40% 30.12 in 10.0 mi NE 8.1 mph 17.3 mph N/A   Scattered Clouds
1:55 PM 63.7 °F 43.5 °F 48% 30.12 in 10.0 mi East 12.7 mph 17.3 mph N/A   Clear
2:15 PM 61.9 °F 42.1 °F 48% 30.11 in 10.0 mi East 10.4 mph - N/A   Clear
2:35 PM 63.5 °F 38.7 °F 40% 30.10 in 10.0 mi East 11.5 mph - N/A   Clear
2:55 PM 62.8 °F 37.4 °F 39% 30.09 in 10.0 mi East 12.7 mph - N/A   Scattered Clouds
3:15 PM 63.7 °F 36.1 °F 36% 30.09 in 10.0 mi East 10.4 mph - N/A   Scattered Clouds
3:35 PM 63.1 °F 35.2 °F 35% 30.07 in 10.0 mi ENE 10.4 mph 17.3 mph N/A   Clear
3:55 PM 63.1 °F 34.7 °F 35% 30.07 in 10.0 mi East 11.5 mph - N/A   Clear
4:15 PM 62.4 °F 34.5 °F 35% 30.06 in 10.0 mi East 8.1 mph - N/A   Clear
4:35 PM 61.5 °F 34.2 °F 36% 30.06 in 10.0 mi ENE 9.2 mph - N/A   Clear
4:55 PM 61.5 °F 34.5 °F 36% 30.07 in 10.0 mi East 6.9 mph - N/A   Clear
5:20 PM 60.6 °F 34.7 °F 38% 30.07 in 10.0 mi ENE 6.9 mph - N/A   Clear
5:35 PM 60.3 °F 34.9 °F 39% 30.06 in 10.0 mi ENE 5.8 mph - N/A   Clear
5:55 PM 59.5 °F 35.6 °F 41% 30.07 in 10.0 mi ENE 6.9 mph - N/A   Clear
6:15 PM 58.5 °F 36.1 °F 43% 30.07 in 10.0 mi ENE 5.8 mph - N/A   Clear
6:35 PM 57.9 °F 36.1 °F 44% 30.08 in 10.0 mi East 4.6 mph - N/A   Clear
6:55 PM 56.7 °F 36.0 °F 46% 30.09 in 10.0 mi East 3.5 mph - N/A   Scattered Clouds
7:15 PM 55.4 °F 35.8 °F 48% 30.09 in 10.0 mi ENE 3.5 mph - N/A   Clear
7:35 PM 54.5 °F 35.6 °F 49% 30.10 in 7.0 mi ENE 3.5 mph - N/A   Clear
7:55 PM 53.6 °F 35.2 °F 50% 30.10 in 10.0 mi Calm Calm - N/A   Clear
8:15 PM 53.2 °F 34.7 °F 49% 30.11 in 10.0 mi Calm Calm - N/A   Clear
8:35 PM 51.3 °F 33.3 °F 50% 30.11 in 10.0 mi Calm Calm - N/A   Clear
8:55 PM 49.3 °F 32.2 °F 52% 30.11 in 10.0 mi NW 3.5 mph - N/A   Clear
9:15 PM 48.9 °F 32.4 °F 53% 30.12 in 10.0 mi North 3.5 mph - N/A   Clear
9:35 PM 49.1 °F 32.5 °F 53% 30.12 in 10.0 mi Calm Calm - N/A   Clear
9:55 PM 47.8 °F 32.2 °F 55% 30.12 in 10.0 mi SSW 5.8 mph - N/A   Clear
10:15 PM 49.1 °F 33.4 °F 55% 30.12 in 10.0 mi SW 5.8 mph - N/A   Clear
10:35 PM 49.3 °F 34.0 °F 56% 30.12 in 10.0 mi West 4.6 mph - N/A   Scattered Clouds
10:55 PM 51.1 °F 34.7 °F 54% 30.12 in 10.0 mi WNW 4.6 mph - N/A   Mostly Cloudy
11:15 PM 52.5 °F 35.1 °F 51% 30.12 in 10.0 mi SSW 4.6 mph - N/A   Scattered Clouds
11:35 PM 52.9 °F 35.1 °F 51% 30.11 in 10.0 mi Calm Calm - N/A   Clear
11:55 PM 52.9 °F 34.7 °F 50% 30.11 in 10.0 mi WSW 5.8 mph - N/A   Mostly Cloudy